Theta_e
350 350 352 352 352 352 352 353 353 355 356 355 356 355 356 356 356 356 355 354 354 354 356 355 355 355 353 353 354 355 355 355 354 353 354 354 353 353 353 353 353 351 349 348 347 351 353 354 355 355 355 355 355 354 354 355 356 355 353 351 349 349 347 342 337 338 340 341 342 342 343 345 346 346 346 346 346 347 347 348 347 348 348 348 349
349 350 351 351 352 351 351 352 353 354 354 355 356 356 355 356 356 357 356 355 354 354 355 355 354 355 354 353 353 354 356 356 355 354 353 354 353 353 352 352 353 352 349 345 344 348 353 354 355 355 354 356 356 356 356 355 355 354 352 350 349 347 346 343 337 336 337 339 340 338 338 342 343 345 346 345 346 346 346 347 347 348 348 348 349
350 349 349 350 351 351 350 352 353 353 354 355 355 356 355 355 356 357 357 356 354 354 355 355 354 355 354 354 354 354 355 355 355 354 354 354 354 353 352 352 352 353 351 347 344 345 352 354 355 354 354 355 356 357 357 356 356 355 351 349 349 347 346 344 339 337 335 338 339 338 339 343 342 341 344 345 345 345 345 345 346 346 347 348 349
351 349 349 349 350 351 350 350 351 353 353 354 354 355 354 354 355 356 357 357 355 355 356 355 355 355 355 355 354 354 354 354 355 355 355 354 353 353 353 352 352 353 353 351 345 341 348 354 353 354 355 355 356 357 358 357 357 356 352 350 349 348 346 343 342 339 337 337 340 343 340 342 347 342 340 343 344 345 345 344 345 344 345 348 348
351 350 348 350 350 350 350 350 351 352 353 353 354 354 354 354 354 355 357 357 356 355 355 356 356 355 356 355 355 355 355 354 354 355 355 353 353 353 353 352 352 353 352 352 348 339 343 351 353 355 356 356 356 357 358 356 356 355 352 351 350 349 346 342 343 341 338 337 341 346 341 342 353 348 338 341 343 345 345 344 344 344 345 346 345
350 350 349 349 349 350 351 349 351 352 353 354 354 354 354 353 354 354 356 357 356 354 354 356 356 355 356 355 354 355 355 355 354 355 355 353 353 352 352 353 352 353 352 352 351 343 340 346 353 355 356 356 355 357 358 356 356 354 352 352 350 350 348 344 341 340 339 338 340 345 344 345 350 345 344 347 343 342 344 344 344 343 344 345 344
350 350 349 350 350 350 350 350 350 352 352 354 354 354 354 353 353 354 355 356 356 355 355 356 356 355 356 355 355 354 354 354 354 354 354 353 353 352 352 353 353 353 353 352 352 348 343 345 350 354 354 353 353 355 356 355 355 353 351 352 350 350 351 346 341 339 339 339 341 343 342 345 344 340 346 350 346 343 341 340 342 341 342 344 344
351 351 350 350 350 349 350 349 349 351 352 353 353 354 354 354 353 354 355 356 356 356 356 356 356 356 355 355 354 354 354 354 354 353 353 353 352 352 353 353 353 353 353 353 353 351 348 347 349 351 352 352 352 354 354 353 354 354 351 351 349 350 352 347 340 338 338 338 340 342 342 344 343 340 342 345 348 351 345 341 341 338 339 341 341
352 351 351 350 349 349 349 349 350 350 352 353 354 354 354 354 354 354 355 356 356 356 356 356 356 356 356 355 354 353 353 353 353 352 352 352 352 352 353 354 354 354 353 353 353 352 351 351 350 351 352 352 354 356 357 355 354 354 352 352 351 351 352 347 340 338 337 335 338 341 341 342 342 341 341 340 345 350 349 345 342 339 339 339 339
353 352 352 350 349 349 349 349 349 350 351 352 353 353 353 354 354 354 355 356 356 356 356 356 356 355 355 355 354 353 353 353 353 352 352 352 352 353 354 355 355 354 354 353 354 353 353 354 353 352 352 354 356 358 359 357 355 354 354 353 352 352 352 348 343 341 339 334 336 340 341 341 342 342 341 341 341 343 346 345 341 340 341 340 339
354 353 352 351 349 348 349 349 348 349 351 352 352 353 353 354 354 355 355 356 356 356 356 356 356 356 355 355 354 353 352 353 353 352 352 352 352 353 354 355 355 354 354 354 354 354 354 355 354 354 354 354 356 358 359 359 356 355 355 354 353 353 352 349 346 344 342 336 335 339 342 340 341 343 342 341 341 341 344 345 341 341 341 339 339
354 354 353 352 351 349 349 349 349 350 351 351 352 352 353 354 354 354 354 355 356 356 356 356 356 355 355 354 353 352 352 353 353 352 352 352 353 352 353 355 355 354 354 355 355 355 356 356 356 356 356 354 355 357 359 359 358 356 355 355 354 353 354 351 347 344 342 339 335 338 341 340 339 342 342 341 340 341 344 344 341 341 342 341 339
354 353 353 353 352 351 349 349 349 350 351 351 351 352 353 354 353 354 354 354 355 356 356 356 356 355 354 353 353 352 352 352 353 353 351 352 352 353 354 354 355 356 355 355 355 356 356 357 356 356 356 355 354 356 359 359 358 358 357 356 356 353 353 353 349 345 342 340 337 336 339 340 339 341 343 342 341 340 342 342 342 342 342 341 340
353 354 352 352 353 351 350 350 350 352 352 352 352 352 353 353 354 354 355 355 354 355 356 356 356 355 355 354 352 352 352 352 353 353 352 352 353 353 353 354 354 355 356 354 354 356 356 357 357 356 356 355 354 355 358 360 360 359 358 357 357 355 354 354 351 347 343 343 342 340 339 339 339 340 341 341 340 340 342 342 342 343 341 338 338
353 353 353 353 353 350 350 350 350 352 352 352 352 352 352 353 354 354 354 355 354 355 355 355 355 355 354 353 352 352 352 351 352 354 354 352 352 353 353 353 354 353 354 354 354 356 356 357 357 356 356 356 355 355 357 360 360 359 359 358 358 357 356 356 353 348 344 344 344 344 342 340 339 339 339 341 342 341 343 342 342 344 344 340 338
353 353 353 353 352 349 351 351 351 353 353 353 354 353 353 354 354 354 354 355 354 354 355 355 354 354 354 354 352 352 352 351 352 353 355 354 353 353 353 353 353 352 354 354 355 355 355 356 357 356 356 356 356 356 356 358 360 360 359 359 358 358 357 356 355 352 347 345 344 345 343 341 340 339 338 339 342 342 342 341 340 342 346 347 345
353 354 353 353 353 350 351 352 352 352 353 354 354 354 354 354 354 354 353 355 355 354 355 354 354 354 353 353 353 352 352 352 352 352 354 355 354 353 353 354 355 354 354 354 355 355 355 355 355 357 356 356 356 357 356 357 360 360 359 359 358 358 358 358 356 354 351 347 344 344 344 341 338 337 338 338 340 341 340 339 340 339 342 348 351
352 354 353 353 353 351 350 353 352 353 354 355 354 355 355 355 355 355 354 355 355 355 355 354 354 353 353 353 353 353 352 352 352 352 352 355 356 355 354 355 356 355 354 354 354 354 355 355 355 356 357 357 357 357 357 357 360 361 359 359 359 358 359 359 357 356 355 352 346 343 344 343 338 336 337 339 340 341 340 339 339 338 338 342 344
353 353 353 353 354 351 351 352 353 354 354 355 356 356 357 356 356 356 355 355 355 355 355 354 354 354 353 353 353 353 353 352 352 353 353 354 356 356 355 355 355 356 356 355 355 355 356 356 356 357 357 357 357 357 357 358 360 361 359 358 359 359 359 359 358 357 356 354 350 345 342 343 341 339 337 339 341 342 343 341 341 339 338 338 338
353 353 353 353 353 353 351 351 353 354 354 355 356 357 357 357 357 357 357 356 356 356 356 356 355 354 354 354 354 353 353 353 353 354 354 354 355 356 356 355 355 356 357 356 356 356 356 357 357 357 357 358 359 358 358 359 360 360 359 357 357 359 359 358 358 357 356 356 354 350 345 341 340 341 341 341 341 343 344 344 342 340 338 339 338
353 353 353 353 353 353 351 352 352 354 355 356 357 358 358 358 359 358 358 357 357 356 356 356 356 355 355 354 354 354 353 354 354 354 355 355 355 355 357 356 355 355 357 357 358 357 356 357 357 358 358 358 359 359 358 358 360 360 359 357 357 358 359 359 358 358 356 356 355 353 351 345 340 339 341 343 343 344 344 344 344 342 339 339 340
353 353 352 353 353 353 351 352 352 353 355 356 357 358 359 359 359 359 359 358 358 357 357 357 357 356 355 355 355 355 354 354 354 355 356 355 355 356 356 358 357 356 356 356 357 358 358 358 358 358 359 358 358 360 360 360 359 360 359 357 357 358 359 359 358 358 357 356 356 354 353 351 347 341 338 340 343 344 344 343 344 343 341 340 341
352 352 351 353 353 352 352 351 352 352 354 356 357 358 359 359 360 360 360 359 359 358 358 357 357 356 356 356 355 355 355 355 355 355 355 355 355 355 356 358 358 357 357 356 356 357 358 359 358 359 359 358 359 359 359 360 359 359 359 358 358 358 358 359 358 358 358 357 357 356 354 352 351 348 343 339 340 342 343 344 344 343 342 341 340
353 351 352 353 352 353 353 352 352 352 353 355 356 358 359 360 361 360 361 360 360 359 358 358 357 357 357 356 356 355 355 356 356 355 355 355 355 355 355 357 358 359 358 357 357 357 358 358 359 359 359 359 359 359 359 360 359 359 359 358 358 358 358 359 358 358 358 357 357 356 355 353 352 351 349 345 342 340 340 341 342 343 343 343 342
352 350 353 353 353 355 355 352 352 351 353 354 354 357 359 360 361 362 361 361 361 360 359 359 358 358 357 357 356 356 355 356 355 355 356 355 355 355 355 356 357 359 359 358 358 358 358 359 358 359 359 359 359 359 359 360 360 359 359 358 358 359 358 358 358 357 357 357 356 355 354 353 353 352 351 349 347 344 340 340 340 340 342 344 343
352 352 352 353 354 356 356 354 352 352 354 355 354 357 358 359 361 362 362 363 361 361 361 360 359 358 358 358 357 357 356 356 355 355 355 356 355 356 355 355 355 356 358 359 360 359 359 359 359 358 358 359 359 359 359 360 360 360 360 359 359 358 358 358 358 358 358 357 357 356 354 353 353 352 351 350 349 348 345 343 341 339 339 341 344
351 351 352 354 354 355 356 354 352 352 354 355 355 356 357 359 361 361 363 363 363 363 361 361 360 359 359 358 357 357 357 356 356 355 355 355 355 355 356 355 355 354 356 358 360 360 360 360 360 360 360 359 359 359 359 359 360 360 360 360 360 359 359 359 358 358 358 358 358 356 355 354 353 352 351 350 349 348 347 347 344 341 339 339 342
350 350 352 355 355 355 356 354 352 351 353 355 356 356 357 359 360 361 363 363 363 363 362 362 361 360 360 359 358 358 357 357 356 356 356 355 356 356 355 356 355 354 355 356 357 359 360 359 360 359 360 360 359 360 359 360 360 360 360 361 361 361 360 360 360 360 359 359 358 357 356 356 354 353 351 350 349 348 348 347 346 345 342 341 341
349 350 353 353 354 356 355 354 353 351 353 356 357 358 358 358 359 361 362 363 364 363 364 363 362 361 361 360 359 359 358 357 357 356 356 356 355 356 356 356 356 355 355 355 355 357 359 360 360 359 359 359 359 359 359 359 360 360 361 360 361 361 361 361 360 360 359 359 359 359 357 356 355 354 353 352 350 350 349 348 347 346 345 344 341
349 350 351 351 353 355 355 357 356 352 353 357 358 359 359 359 359 361 362 363 363 364 364 364 363 362 362 360 360 360 359 359 358 357 357 356 356 356 356 356 356 356 356 355 355 355 357 358 359 359 358 359 359 360 359 359 359 359 360 360 361 361 361 361 361 360 360 359 359 359 358 357 356 355 354 353 352 351 350 349 348 346 345 345 343
347 348 349 352 354 355 355 358 357 354 354 358 360 360 360 360 361 360 361 363 364 364 364 364 364 363 362 362 361 360 360 359 359 358 357 357 357 357 356 356 356 357 356 356 356 355 356 356 358 358 358 358 358 359 359 359 359 359 360 360 361 361 361 361 361 360 360 359 359 359 359 358 358 357 356 355 354 353 352 351 350 349 348 346 345
349 349 352 354 355 358 359 358 356 355 357 358 361 362 361 361 361 360 362 363 364 365 365 364 365 364 363 363 361 361 360 360 359 358 358 357 357 357 356 356 356 357 357 357 357 356 355 356 357 357 359 358 358 358 357 358 359 359 360 360 360 361 361 361 361 361 360 359 359 359 359 358 358 357 357 356 356 355 354 353 353 351 350 349 348
351 350 352 354 355 357 361 360 358 357 357 360 362 363 362 362 361 362 361 363 365 366 366 365 365 365 365 364 362 362 361 360 360 359 358 358 358 357 356 356 356 356 357 357 357 357 356 357 357 357 358 358 358 358 358 358 358 358 360 361 361 361 361 361 361 361 361 360 360 359 359 358 358 358 358 357 357 356 355 355 355 354 353 351 350
356 354 355 356 359 362 361 359 360 359 360 362 362 363 364 363 362 363 362 362 364 366 366 366 366 366 365 364 364 362 361 361 360 359 358 358 358 357 356 356 356 356 356 356 357 357 357 357 356 357 357 358 358 358 358 359 358 358 359 360 361 362 361 361 361 361 361 361 361 360 360 359 358 358 358 358 358 357 356 355 355 354 353 352 352
372 371 372 372 376 375 367 361 362 362 361 362 364 365 364 364 363 364 363 363 364 365 366 367 367 366 366 365 365 363 362 361 360 360 359 358 358 358 358 356 356 356 356 356 357 357 357 357 356 356 357 357 357 357 358 358 358 359 359 359 360 361 361 361 361 361 361 361 361 361 361 360 360 359 359 358 358 358 357 356 355 354 354 353 352
373 376 379 377 374 372 367 364 363 363 363 363 364 365 365 365 365 365 364 364 364 364 365 366 367 367 367 366 366 364 363 362 361 360 359 358 358 358 358 358 357 356 356 356 356 357 357 357 358 357 356 356 356 357 358 358 359 359 360 361 361 361 361 361 361 361 361 361 362 362 361 361 360 360 359 358 358 358 357 357 356 355 354 354 353
368 368 369 367 364 362 361 362 363 363 363 363 365 366 366 365 365 365 366 365 364 365 365 365 367 367 367 367 367 366 364 362 361 361 359 359 358 359 359 359 358 357 357 356 357 357 357 358 359 358 357 357 357 357 358 359 359 360 360 361 361 361 361 361 361 361 361 361 361 361 361 361 361 361 361 360 359 359 358 357 357 356 355 354 355
364 364 363 363 363 363 362 364 365 366 366 365 364 364 365 366 366 366 366 366 366 365 364 365 367 367 367 368 367 366 365 364 363 362 360 359 359 359 358 359 359 358 357 357 357 357 357 358 359 359 359 359 359 358 359 360 361 361 361 362 361 361 361 360 361 361 361 362 361 361 362 361 361 361 361 360 360 359 359 358 358 357 356 356 356
362 363 363 362 363 364 364 366 366 367 368 367 366 365 364 364 364 365 366 365 365 365 365 366 366 366 367 367 367 367 367 366 365 364 362 361 360 359 359 359 359 359 358 358 358 357 357 358 358 359 360 360 361 360 360 360 361 361 362 363 363 362 361 360 361 361 361 361 361 361 361 361 361 361 361 361 361 360 360 359 358 357 357 357 357
361 361 362 362 362 361 362 364 364 365 367 367 366 367 367 365 364 364 364 364 365 365 366 366 365 366 367 367 368 368 367 367 366 365 364 363 362 360 360 360 360 360 359 358 358 358 358 358 358 358 359 360 361 361 361 362 361 361 362 363 363 363 361 361 362 361 362 362 362 362 362 361 361 362 361 361 361 360 360 360 359 357 357 357 357
358 359 360 359 360 360 359 361 363 364 366 365 366 366 366 366 367 365 364 364 365 364 365 364 365 366 367 367 367 368 368 367 367 366 365 364 364 363 362 361 361 361 360 360 360 359 359 358 359 359 359 359 360 360 362 362 362 362 362 363 364 364 364 363 363 363 362 362 363 363 363 363 363 363 363 362 362 361 361 361 360 359 358 359 358
355 357 357 357 359 359 358 359 361 363 364 366 366 366 365 365 365 365 365 364 363 365 364 364 365 364 366 368 368 368 368 368 367 367 367 365 365 364 364 363 362 362 362 362 361 361 360 359 359 360 360 360 360 361 361 361 362 363 363 363 364 364 365 365 364 363 363 364 364 364 364 364 364 363 363 363 363 362 362 362 361 361 361 360 359
353 354 356 355 357 358 358 358 359 360 362 364 365 368 367 366 365 366 366 364 363 365 365 364 364 365 365 367 368 368 368 368 368 368 368 367 367 366 365 365 364 364 363 364 363 363 362 362 361 361 362 363 362 362 363 362 363 364 364 365 365 365 366 366 364 364 364 364 364 364 364 364 364 364 364 363 363 363 363 362 361 361 361 361 358
353 354 355 355 355 357 357 356 356 358 359 359 360 363 364 364 365 367 368 367 365 365 366 365 364 365 366 367 368 369 370 369 369 369 368 368 368 367 367 366 365 365 365 365 365 365 364 363 363 363 364 364 365 364 364 364 365 365 365 365 365 365 365 365 364 364 363 363 363 363 363 363 363 363 363 362 362 362 362 361 361 361 361 360 358
352 354 354 353 355 356 355 354 354 355 356 356 357 358 359 360 363 364 367 369 368 367 367 365 364 364 365 366 368 369 370 370 371 370 370 369 369 369 369 368 368 367 367 366 367 367 366 365 364 364 364 365 366 367 366 366 366 366 366 365 365 365 365 363 362 362 360 360 360 361 362 363 362 363 363 362 362 363 362 361 361 359 358 357 355
351 353 353 353 354 355 353 353 352 351 353 355 355 356 357 359 362 364 365 368 371 369 367 364 365 365 365 367 368 369 371 372 372 371 371 370 370 370 370 370 369 369 368 368 368 367 367 367 366 365 365 365 366 366 365 366 365 366 366 366 365 364 363 362 360 361 360 359 359 359 359 359 359 358 357 355 354 353 352 350 349 346 344 346 347
349 352 352 352 353 352 352 351 351 351 352 354 355 355 356 358 362 366 365 367 371 371 367 366 366 365 365 367 369 370 371 373 373 373 373 372 372 371 371 370 370 370 369 369 368 368 368 367 367 366 365 364 363 362 362 362 363 363 363 363 362 361 361 359 358 356 355 353 351 348 346 344 343 341 339 337 336 335 335 334 333 334 335 337 339
348 351 352 352 352 352 352 351 352 352 352 353 354 355 356 358 362 366 367 367 369 371 370 368 367 366 368 369 369 370 372 373 373 372 371 373 372 372 371 371 371 371 370 369 368 369 368 368 368 366 361 356 355 357 356 356 356 357 356 355 353 351 348 346 343 340 337 336 333 332 331 330 330 330 329 329 329 330 331 331 332 333 333 334 334
348 349 351 351 352 352 352 351 352 352 352 352 352 353 355 355 359 365 368 368 368 371 371 371 368 368 369 369 370 372 372 371 369 366 366 367 369 371 372 371 372 372 371 370 370 370 370 370 368 366 359 352 348 348 349 348 346 346 344 342 339 336 333 331 330 328 329 328 329 328 329 329 330 331 331 331 331 331 332 333 332 333 333 333 333
345 347 349 351 352 351 351 352 351 350 351 351 351 351 352 353 356 363 368 369 368 370 370 371 370 369 370 370 371 370 368 367 365 362 360 358 359 364 367 368 369 371 371 370 370 369 370 370 366 361 357 354 350 344 341 339 337 335 332 331 330 330 329 328 328 328 329 329 329 330 331 332 333 333 333 333 333 333 333 333 332 333 333 332 332
344 345 348 350 351 351 351 351 351 350 350 351 351 351 351 351 354 360 365 367 368 368 369 369 369 369 368 369 367 363 362 361 360 360 359 355 352 354 358 361 366 368 369 371 371 369 368 368 366 359 352 347 343 337 333 331 330 329 329 329 328 328 328 328 328 330 330 331 331 333 333 334 334 333 333 333 332 332 332 332 332 332 332 332 332
Wind_Speed
20 28 32 33 33 35 36 35 36 37 37 39 40 40 39 36 35 36 38 38 38 37 34 33 32 31 30 31 30 27 26 25 24 24 22 22 23 21 19 17 15 16 20 21 19 20 17 13 13 12 10 9 8 7 7 8 8 6 5 5 8 8 4 9 13 15 17 14 12 12 13 13 12 11 11 10 10 10 11 11 11 10 10 10 8
17 23 28 32 33 34 37 36 36 36 38 41 42 42 41 39 37 36 38 39 40 40 37 35 35 33 31 32 32 29 28 27 25 25 23 22 24 23 20 17 17 16 18 20 19 21 19 15 14 13 11 10 8 7 8 9 9 7 7 7 9 8 6 7 9 10 12 12 11 9 7 9 10 10 11 11 11 11 11 12 12 11 11 10 9
16 19 23 30 33 34 35 36 38 38 39 41 42 42 42 40 38 36 38 40 41 40 38 36 36 34 32 32 32 30 29 28 25 24 23 22 24 25 21 19 19 18 17 18 19 22 21 17 16 14 12 11 10 10 10 11 10 8 8 9 9 8 6 6 7 6 10 13 11 5 2 4 5 7 11 12 12 13 12 12 12 12 12 11 10
19 19 20 26 31 33 33 34 38 39 38 40 40 41 41 41 40 39 39 40 41 41 39 36 35 33 31 30 31 29 28 27 26 24 22 22 25 26 25 22 21 20 18 18 19 21 23 21 18 15 14 13 12 12 13 12 11 9 9 11 11 10 7 7 6 5 10 12 7 2 2 3 1 5 9 9 12 15 14 13 13 13 13 13 12
20 21 19 21 26 31 33 34 37 38 38 39 41 41 41 41 42 42 41 40 41 42 40 35 33 32 30 27 26 25 25 26 27 26 23 22 25 27 27 26 23 22 20 18 18 20 22 22 20 17 16 15 14 13 14 12 11 10 11 12 14 12 9 8 7 6 9 12 6 3 3 2 2 5 5 4 10 16 16 15 14 14 15 15 14
20 21 20 20 24 30 34 35 36 37 39 42 43 43 42 42 43 43 42 41 41 41 40 37 35 35 32 28 27 25 25 27 30 31 28 25 25 27 27 27 26 24 21 19 18 19 22 23 22 19 17 17 16 14 14 13 12 12 12 14 15 14 11 9 9 8 9 11 8 4 3 2 3 5 4 2 4 11 14 16 16 15 17 18 15
19 20 20 20 23 26 30 35 37 38 40 43 44 43 43 43 43 43 42 41 41 41 41 39 37 37 36 34 33 31 29 30 33 33 31 28 26 27 27 27 27 26 23 21 19 19 21 23 23 22 20 19 17 15 15 15 13 12 12 14 15 14 12 11 12 12 10 10 8 5 3 2 5 8 6 3 3 5 9 13 14 13 15 18 17
18 19 20 20 22 25 30 36 39 40 41 42 43 43 43 43 43 43 42 41 41 42 42 41 39 38 38 36 34 35 34 33 33 34 32 30 27 27 28 29 29 27 25 22 19 20 21 22 23 23 22 20 18 17 16 15 14 13 13 14 15 15 13 12 14 14 13 12 10 7 4 4 7 10 11 9 5 2 4 7 10 12 12 15 17
19 19 20 20 22 28 34 37 39 40 41 42 42 43 43 43 44 43 42 41 41 42 43 42 41 40 39 37 34 35 35 33 33 33 33 31 28 27 28 30 30 28 25 23 20 20 22 22 22 22 22 20 19 18 17 15 14 14 14 15 17 17 14 14 15 16 14 14 13 10 7 5 7 9 13 12 7 4 3 4 8 10 10 13 16
18 19 19 20 25 31 35 36 37 38 41 43 43 42 42 42 42 42 42 41 41 42 43 42 41 39 38 38 36 34 32 31 31 32 33 33 30 28 28 30 31 30 27 24 22 21 21 22 23 23 22 21 20 19 18 17 15 15 15 15 17 18 16 15 16 16 13 13 15 14 11 9 7 7 11 11 8 6 4 5 9 10 8 11 15
16 18 18 20 25 30 32 33 35 36 39 41 41 41 42 42 42 42 42 41 42 43 44 43 41 40 39 39 38 35 33 31 32 32 34 34 32 30 29 30 31 30 28 26 24 22 21 22 23 23 22 21 21 20 19 18 17 16 16 16 17 18 16 15 16 16 14 12 16 17 15 13 10 8 11 12 9 5 4 5 10 12 11 11 13
16 16 16 18 20 23 27 31 33 35 36 38 40 40 41 42 42 42 41 41 42 43 44 43 42 41 40 39 38 37 34 33 34 35 35 35 33 31 30 31 31 31 29 28 26 25 23 23 23 23 23 22 22 22 20 19 18 17 17 17 18 18 17 17 16 17 16 14 16 18 16 14 14 12 12 13 12 9 7 7 8 9 10 13 13
16 16 16 16 17 17 22 28 31 33 36 39 40 40 40 41 42 42 41 42 42 43 44 44 43 42 41 40 39 38 36 35 36 36 36 36 35 33 31 31 31 31 31 30 29 27 25 25 24 25 24 23 22 22 21 20 19 18 18 19 20 19 18 18 18 18 18 16 16 17 16 15 16 15 13 12 13 12 10 8 8 6 8 13 14
16 16 16 16 17 16 20 27 30 32 37 39 40 40 39 40 42 43 43 44 43 43 44 44 44 44 42 42 40 38 38 37 36 36 37 36 35 34 34 33 32 32 32 32 31 28 27 27 26 26 26 24 22 22 22 21 20 19 19 20 21 21 19 19 19 18 19 18 17 17 17 17 17 16 15 13 14 14 11 10 8 4 5 9 9
16 16 16 17 18 18 21 27 29 32 36 39 40 41 40 40 42 44 43 43 44 43 44 44 44 44 43 42 40 39 39 38 36 35 36 37 36 35 35 35 34 34 33 33 31 30 28 28 28 27 27 26 24 23 23 22 21 20 20 21 22 22 21 20 19 18 19 20 18 18 18 18 18 19 18 16 16 15 13 14 12 5 2 3 4
16 15 17 18 19 20 23 26 29 32 35 37 39 41 41 41 42 44 43 43 44 44 44 44 44 43 42 42 40 39 39 37 36 34 34 36 37 36 36 36 36 35 34 33 32 30 29 29 29 29 28 27 26 25 24 24 23 22 21 22 23 23 22 22 20 19 19 20 20 19 19 19 20 21 20 19 18 18 15 16 16 11 6 2 3
17 17 18 18 19 21 24 27 29 31 34 37 40 42 43 42 42 43 42 42 43 43 43 43 43 41 41 41 40 40 39 38 38 37 36 35 36 36 36 35 35 35 34 33 32 31 30 29 30 30 30 29 28 26 26 25 25 24 23 23 24 25 24 23 22 20 19 20 21 22 21 19 19 21 22 20 19 20 19 18 18 17 13 7 3
20 19 18 18 18 20 25 29 32 34 37 40 42 43 43 43 42 43 42 42 42 42 42 42 41 40 39 40 40 40 40 40 39 39 37 35 35 36 35 35 35 35 34 33 32 31 31 31 30 31 31 31 30 29 27 27 27 27 26 25 25 25 26 25 24 23 21 20 21 23 24 22 20 22 23 22 21 20 21 21 20 19 18 14 10
17 17 15 16 17 20 25 29 33 36 38 39 40 40 40 41 42 43 43 44 44 42 41 41 41 40 39 40 40 39 39 39 39 38 36 35 36 36 36 36 36 35 34 34 33 32 32 32 32 31 31 32 32 30 29 28 29 29 29 28 27 26 27 27 26 25 24 23 22 23 26 26 24 24 25 24 23 22 21 21 21 21 22 21 19
16 16 15 17 18 21 28 31 33 36 37 36 37 38 39 40 41 42 43 43 42 42 41 40 40 40 39 39 39 39 39 38 37 36 36 36 37 36 37 38 37 36 35 34 34 34 33 33 33 32 32 32 33 32 31 30 30 31 31 30 30 29 29 29 28 27 26 26 26 25 26 28 27 27 28 27 26 25 23 21 20 23 24 23 24
16 15 16 17 17 20 28 32 33 34 33 33 36 37 38 39 40 42 42 41 41 41 41 40 40 40 40 39 40 40 39 38 36 35 36 37 37 36 37 37 37 36 35 34 34 35 34 34 34 33 33 33 33 34 33 33 33 33 33 32 32 31 30 31 30 30 29 28 28 28 28 28 28 30 31 31 30 28 26 24 21 22 26 26 25
17 16 17 17 16 18 24 29 29 29 30 32 34 35 36 38 40 41 41 41 41 42 42 41 41 40 41 41 40 40 40 39 37 36 36 36 36 36 36 36 36 37 37 36 36 35 35 35 35 35 34 34 34 35 35 35 35 36 35 34 33 33 33 33 32 32 32 31 30 31 31 30 29 30 32 33 33 31 29 27 24 23 27 27 26
19 18 17 16 15 18 22 26 28 29 30 32 33 34 36 38 38 38 38 40 42 43 43 42 41 40 41 40 39 38 38 38 38 37 37 37 36 37 36 35 35 36 37 38 37 37 36 36 36 36 36 36 36 36 36 37 37 37 37 36 36 35 35 35 35 35 34 33 33 33 34 33 32 31 32 33 34 34 33 32 29 26 28 29 28
19 17 15 14 14 15 17 20 23 27 29 32 33 34 35 35 35 36 38 40 40 41 41 41 40 40 40 39 38 37 37 37 38 38 38 38 38 37 36 36 35 35 36 37 38 37 37 37 36 37 37 38 38 38 38 38 39 39 38 38 37 37 37 37 37 38 37 36 36 36 36 35 34 34 34 33 33 34 35 35 34 31 30 31 31
17 16 14 14 13 14 15 15 20 26 29 32 34 33 33 33 34 36 36 38 38 38 38 39 39 39 38 38 39 38 38 39 39 39 39 39 38 37 37 37 36 35 35 36 37 37 38 38 39 39 39 39 40 40 39 39 40 39 39 39 39 39 39 39 39 39 39 38 38 39 39 37 35 34 35 35 35 35 35 36 36 36 35 33 32
17 16 15 15 15 15 16 16 20 26 29 31 33 32 32 32 34 35 35 36 37 37 37 38 38 37 37 38 39 40 40 40 40 40 39 39 38 38 37 38 38 37 36 36 37 38 39 40 41 42 41 41 41 40 40 40 40 39 39 39 39 40 40 40 40 40 40 39 39 40 40 38 36 36 37 37 36 36 36 37 37 38 38 36 34
17 16 15 16 16 16 17 17 20 26 29 30 31 31 32 32 33 34 35 36 36 36 37 37 37 37 37 39 40 41 41 41 41 41 40 39 39 39 39 39 40 39 38 38 38 39 40 40 42 42 42 42 42 41 41 41 40 40 40 40 40 40 41 41 41 41 40 40 40 40 40 39 38 38 39 39 38 38 38 38 39 39 39 38 36
17 17 17 18 17 17 17 16 19 24 27 28 30 31 32 33 33 34 35 35 36 36 37 37 37 37 38 39 41 41 41 41 41 41 41 40 40 40 40 40 40 40 41 40 40 40 40 41 42 42 42 42 41 41 41 40 41 41 40 40 40 40 40 40 40 41 41 40 40 40 40 39 39 40 41 41 40 40 38 38 39 39 38 37 36
18 18 18 18 18 17 17 17 18 22 24 26 28 31 32 32 33 34 35 36 37 37 38 38 38 38 39 40 40 40 40 40 39 39 40 41 41 41 40 40 40 41 41 41 41 40 40 40 41 42 42 42 41 41 42 42 42 42 41 41 41 40 40 39 39 40 40 40 40 40 40 41 41 41 42 42 42 42 40 39 40 39 37 36 36
17 17 17 18 18 18 18 17 16 19 22 24 26 29 32 32 33 35 35 36 37 37 37 37 37 39 40 40 39 39 39 38 39 39 40 41 41 40 40 40 40 41 41 41 41 40 40 41 41 41 42 42 42 42 43 45 45 44 43 41 40 40 39 38 38 38 38 39 40 40 41 42 42 43 43 43 43 43 43 43 42 41 38 37 35
17 16 14 14 14 15 16 16 16 19 23 25 26 29 32 32 33 34 35 36 36 36 36 36 37 38 38 37 38 38 37 38 38 39 39 40 40 40 39 40 40 40 40 40 40 40 41 41 41 42 42 43 43 44 45 46 47 46 44 41 39 40 39 38 38 37 38 39 40 40 41 41 41 43 44 45 45 45 45 46 46 44 43 41 38
17 15 13 12 13 14 16 16 17 21 26 27 28 29 30 31 32 33 34 34 35 35 35 36 36 36 36 37 37 37 37 37 37 38 38 39 39 39 39 39 39 40 39 39 40 41 41 41 41 41 42 43 45 46 46 46 47 47 46 43 41 39 39 39 39 38 38 38 37 38 39 39 40 41 43 44 45 46 47 47 48 48 47 46 44
16 15 14 14 14 13 15 16 18 23 28 30 31 31 31 32 33 33 33 33 34 34 34 35 36 36 36 37 37 37 37 37 37 38 38 37 37 39 39 39 39 39 38 38 40 41 42 41 41 41 42 43 45 46 47 47 47 47 47 45 43 40 39 39 39 38 37 37 37 37 36 38 39 40 41 42 43 45 46 47 49 49 49 49 49
10 12 13 13 11 10 12 16 21 26 29 31 31 31 32 33 33 33 34 33 33 33 33 34 35 35 36 37 37 37 37 37 37 37 37 37 38 39 39 39 38 38 38 39 40 41 42 42 42 42 42 43 44 46 46 46 47 47 46 46 45 43 40 39 38 38 37 37 38 37 37 37 38 37 38 39 40 42 43 44 47 48 50 51 51
6 7 6 6 7 7 9 12 18 22 23 25 27 27 28 29 30 32 32 33 32 32 32 33 34 35 36 36 37 37 37 37 37 37 38 38 39 38 38 38 37 37 38 40 40 41 42 42 42 42 42 42 44 45 44 45 47 47 46 46 45 44 41 39 39 38 38 39 39 38 38 38 38 38 38 38 39 40 41 42 44 45 48 49 51
8 9 8 6 7 8 9 11 15 17 19 21 23 24 24 26 28 30 30 31 31 30 31 32 33 34 36 36 36 36 36 36 37 37 38 38 38 38 38 38 37 36 37 38 39 39 40 40 40 41 41 42 43 43 43 45 45 45 45 45 44 44 43 41 41 39 38 39 39 38 39 39 40 40 39 39 39 38 39 40 41 43 44 46 50
11 12 12 13 15 15 14 15 15 14 14 16 20 23 24 24 26 28 28 30 30 30 30 31 32 34 35 36 37 36 36 36 36 37 37 38 38 38 38 37 37 36 37 37 38 38 38 39 39 39 40 41 42 41 41 42 43 42 42 43 44 44 43 43 42 41 40 39 39 39 40 40 41 42 40 40 39 39 40 40 40 41 40 43 50
12 13 14 17 20 20 20 20 19 15 10 8 13 20 23 24 25 27 28 28 28 29 30 31 32 34 35 36 37 37 37 37 36 37 37 37 38 38 37 37 38 38 38 38 38 37 37 37 37 38 39 39 39 38 37 37 38 38 39 42 43 43 42 42 42 41 40 40 40 41 41 41 42 42 41 41 40 39 41 41 40 39 38 43 49
15 15 15 17 21 23 24 24 22 18 14 9 6 10 16 20 23 25 25 26 27 30 32 31 32 33 35 37 38 38 38 38 37 38 38 38 38 38 38 38 38 39 38 38 37 36 36 36 37 37 37 37 36 35 34 34 34 35 37 40 42 42 40 40 40 39 39 40 40 40 40 41 43 44 43 42 41 40 42 43 42 40 38 44 47
16 18 19 21 24 24 22 21 20 19 15 11 7 5 7 10 14 18 21 24 28 30 31 32 32 32 34 37 38 38 39 38 38 38 37 38 38 37 37 37 37 37 36 35 36 36 35 36 36 36 36 36 35 33 32 33 33 33 34 36 39 41 40 38 38 38 38 38 37 38 39 40 42 43 43 42 42 42 43 44 43 41 40 45 46
18 21 22 22 22 22 21 20 20 20 18 14 9 5 4 3 4 9 14 17 20 24 27 30 31 32 33 35 36 38 39 39 39 38 37 37 37 36 36 36 35 35 34 33 34 34 34 34 34 34 34 34 33 32 32 33 33 34 33 34 37 41 40 38 38 37 36 34 34 35 38 40 41 43 42 42 42 42 43 44 45 45 46 49 48
21 23 23 20 19 19 21 22 22 21 19 16 11 7 3 2 1 3 6 8 10 15 21 26 29 31 32 33 35 36 37 37 38 37 35 35 35 35 35 35 34 33 32 32 32 32 31 31 31 31 32 32 31 31 31 32 33 33 33 33 36 38 38 38 37 36 34 34 35 36 37 37 37 37 37 37 38 39 40 43 46 48 49 51 50
17 20 21 20 17 16 17 19 20 21 20 18 15 11 7 4 4 6 7 7 9 12 16 22 26 28 30 31 33 34 34 34 35 35 35 33 33 33 33 33 33 31 30 30 30 29 29 28 27 28 28 28 28 28 29 31 31 31 30 31 33 34 35 36 37 35 32 32 33 33 31 30 30 30 31 32 33 35 37 40 43 46 48 50 49
13 15 18 17 14 12 13 17 19 19 19 20 18 15 12 9 8 9 9 7 10 12 15 20 24 26 27 28 30 31 32 32 32 33 33 32 32 32 31 32 32 30 28 27 27 27 26 25 24 24 24 23 23 24 27 29 29 28 28 30 31 31 32 35 36 33 28 25 23 22 22 22 23 24 25 27 28 31 33 35 38 40 41 43 44
12 15 17 16 13 11 12 15 17 18 17 18 19 17 15 14 12 10 10 7 7 13 17 20 23 24 25 26 27 28 30 30 31 32 32 32 31 30 29 29 29 28 27 25 24 24 24 23 22 22 21 20 21 23 25 26 27 28 29 30 30 31 32 34 34 32 29 25 22 21 21 21 22 23 24 25 27 30 32 34 36 38 38 39 40
10 12 16 17 16 14 14 14 16 18 17 16 18 17 16 16 14 10 9 8 5 11 17 20 22 23 24 24 24 25 27 27 29 31 32 32 32 30 27 26 27 27 25 24 23 23 23 22 21 21 19 18 17 18 19 19 19 21 23 24 25 26 27 28 28 28 26 24 23 22 22 22 23 23 24 24 26 28 29 31 32 33 34 34 35
11 11 14 17 15 12 12 13 14 16 16 15 15 15 15 15 14 10 7 7 4 8 15 18 20 21 22 23 23 24 24 25 26 29 30 30 30 29 26 26 26 25 23 22 22 22 21 21 20 19 17 16 14 13 12 11 11 11 11 11 12 12 12 12 12 13 13 12 12 12 12 13 13 14 15 16 18 20 22 25 26 27 27 27 29
16 14 14 15 13 10 10 11 11 12 13 13 12 12 13 14 14 11 7 5 3 5 11 15 18 19 20 21 22 23 23 23 22 22 21 21 22 24 25 26 26 25 23 22 21 21 22 22 21 19 16 15 14 14 13 12 11 11 10 10 9 8 7 6 6 5 4 5 5 5 5 6 8 10 12 15 17 19 22 24 27 28 29 29 30
14 14 13 12 11 10 9 9 8 9 10 10 10 10 11 13 13 11 7 4 3 3 6 11 14 16 17 19 20 22 23 23 20 16 14 12 13 17 20 23 25 26 26 25 24 24 25 24 22 21 20 19 18 16 15 14 13 12 11 10 10 9 7 6 5 4 2 1 1 3 6 8 11 14 16 18 21 23 25 27 29 30 31 31 32
16 18 17 14 11 10 9 7 7 9 10 10 10 10 10 11 11 10 6 5 5 4 4 7 10 12 14 16 18 19 21 22 21 19 17 13 9 9 14 17 20 22 23 24 24 24 25 24 21 20 20 21 20 19 17 15 14 13 11 11 10 9 7 6 5 5 3 2 4 7 10 13 15 17 18 20 22 23 25 26 28 29 30 31 32
18 19 17 14 10 9 8 5 6 9 10 9 9 10 10 10 10 9 5 5 7 6 6 7 10 12 14 17 18 20 21 22 23 22 22 20 17 13 9 9 12 14 17 19 20 18 19 21 22 20 19 18 19 19 17 15 14 12 11 10 9 8 7 6 6 4 4 6 8 9 12 14 15 15 16 17 19 20 22 24 26 28 30 32 33
Wind_Direction
186 185 184 183 183 182 182 183 183 184 185 185 186 188 189 188 187 188 191 191 191 192 194 195 195 196 200 202 203 205 205 204 206 211 214 211 208 209 213 216 215 208 208 210 203 199 198 194 198 201 203 207 210 210 199 194 204 208 210 208 191 186 161 147 146 139 136 134 135 143 149 155 167 176 176 174 177 180 181 185 187 188 194 199 200
180 184 185 184 184 182 182 184 182 182 184 186 186 187 189 190 189 188 188 190 191 191 192 193 193 193 195 197 200 202 203 202 203 208 215 214 211 212 214 214 213 209 207 209 203 197 198 196 197 204 208 207 205 204 199 198 202 207 208 201 192 188 175 166 170 160 147 146 146 141 143 156 169 183 186 184 181 181 184 186 189 192 197 204 207
180 183 185 186 185 181 180 183 183 183 184 186 187 187 188 190 191 190 189 190 191 192 192 193 193 193 194 196 198 200 203 205 204 207 214 216 213 214 215 214 213 210 207 210 205 197 198 200 200 207 214 212 208 201 201 202 201 207 207 197 190 189 195 194 196 189 161 151 146 141 151 146 156 188 194 198 195 186 185 187 190 194 198 205 210
184 185 185 185 185 183 181 181 183 183 183 184 185 186 187 189 191 192 191 191 192 192 194 194 194 194 196 197 198 200 203 204 203 206 213 215 213 215 216 214 213 212 209 210 209 202 199 202 205 209 213 216 217 208 205 207 204 205 205 197 191 192 203 201 204 202 168 157 142 122 138 122 137 217 205 209 208 197 189 189 193 196 198 204 209
184 185 185 184 185 186 184 181 181 183 183 184 185 185 187 188 190 191 192 191 192 193 193 193 192 192 193 192 192 195 198 199 203 208 212 213 212 213 215 214 213 212 211 212 212 207 202 203 207 210 210 217 223 217 213 216 211 207 206 198 195 196 200 195 198 206 187 181 172 128 120 136 217 215 194 192 205 204 202 199 201 202 199 201 204
184 185 184 184 185 185 185 182 181 183 184 185 185 186 187 188 189 190 191 192 192 192 192 192 190 189 188 184 183 185 190 196 204 208 210 211 211 212 213 214 213 212 212 213 215 212 206 204 207 210 214 218 223 222 220 221 217 212 207 200 198 198 202 202 194 189 190 193 190 164 149 191 191 173 162 129 180 196 203 204 207 208 204 203 203
186 185 183 184 184 183 184 183 182 185 186 186 186 187 187 188 188 189 190 191 192 191 191 190 190 189 189 189 188 189 192 198 205 207 207 209 212 213 213 212 213 213 213 213 215 215 209 206 207 211 218 222 224 223 220 222 220 215 209 203 200 198 205 211 192 181 183 188 189 175 151 170 177 166 162 147 133 173 190 192 193 196 200 205 207
184 185 183 184 184 184 185 185 185 185 185 185 186 186 187 187 188 189 190 190 191 190 191 191 190 190 191 193 193 195 198 201 204 206 206 209 213 214 213 212 211 212 213 214 215 215 212 209 209 212 218 223 225 223 221 222 220 215 210 204 200 199 209 214 197 188 190 190 184 173 152 147 170 183 184 168 139 150 196 191 185 182 189 202 209
184 184 184 185 186 186 186 186 186 184 183 185 186 187 187 187 187 189 189 190 190 190 191 192 193 193 193 194 196 199 201 202 203 205 205 209 214 214 214 212 211 211 213 216 216 215 213 212 212 214 217 221 224 224 222 223 222 215 209 204 201 202 208 213 208 202 203 203 192 179 172 157 152 174 185 175 154 154 196 227 204 192 195 205 211
187 186 185 186 186 187 186 186 185 183 183 185 186 186 187 187 186 187 189 189 190 190 191 193 194 195 195 197 198 199 200 200 200 202 204 208 213 214 213 212 209 209 212 217 219 217 214 214 215 216 218 221 222 224 223 224 223 216 210 207 203 203 206 212 217 212 210 213 202 188 183 177 158 157 173 174 165 163 179 215 211 206 210 213 212
188 188 188 187 186 185 185 185 185 183 183 183 184 186 186 187 186 187 189 189 190 191 192 193 195 197 199 199 200 199 198 197 196 199 202 205 209 211 211 211 210 210 212 216 218 218 215 214 216 218 219 222 224 225 225 225 224 215 210 211 207 207 209 214 219 213 210 216 206 197 193 188 185 184 181 180 175 168 170 194 209 215 222 226 219
185 187 188 187 183 182 183 185 186 182 181 181 183 185 185 187 188 188 189 190 191 192 193 195 196 198 201 201 202 200 198 197 196 199 200 202 206 208 208 209 210 211 212 215 217 216 215 214 216 219 221 224 225 227 228 228 228 219 211 210 210 211 212 215 217 212 210 211 202 199 202 202 201 199 194 193 195 195 191 197 207 211 225 239 233
185 186 187 187 185 183 182 184 184 181 181 181 182 183 184 186 187 188 190 191 192 193 195 196 197 199 202 203 203 202 200 199 199 200 200 202 204 205 206 207 209 210 211 214 217 216 215 213 215 217 220 224 226 227 229 229 229 225 216 212 212 213 215 219 222 216 211 210 204 200 205 210 207 201 200 204 207 208 207 212 214 209 226 238 235
186 187 185 187 188 186 183 183 183 182 182 182 182 183 183 185 187 188 190 192 193 194 195 197 199 201 202 203 204 203 202 202 201 201 201 202 203 204 207 209 210 212 212 215 218 216 214 214 214 217 220 224 225 227 229 229 229 228 222 217 215 216 218 223 228 225 218 215 213 210 208 212 211 204 204 208 209 212 218 220 214 207 231 235 225
187 187 186 187 187 187 185 185 185 183 182 182 182 183 183 185 187 188 190 192 193 194 195 197 200 202 203 203 204 204 204 204 204 204 203 203 204 205 208 211 213 216 217 218 219 217 216 215 216 219 221 224 226 227 228 228 228 228 226 222 221 221 222 226 230 228 224 220 219 218 214 215 215 211 212 214 214 219 229 230 218 191 201 258 241
186 188 187 187 187 186 186 186 187 185 183 183 183 184 185 186 188 190 190 191 193 194 196 198 200 202 203 204 205 205 205 206 206 206 205 205 205 206 208 212 215 218 219 219 219 218 218 217 218 220 222 224 227 228 228 228 226 226 227 226 226 225 225 229 229 227 227 224 222 222 220 218 216 214 216 219 219 223 233 239 232 213 187 205 275
186 189 189 187 185 186 187 187 187 185 184 185 186 186 186 188 188 190 191 191 193 195 196 199 200 201 203 204 205 206 206 207 207 208 207 206 206 207 209 212 215 218 219 220 220 220 220 219 219 220 222 224 227 228 229 228 227 227 228 229 228 228 228 231 230 228 229 227 224 224 224 223 218 214 216 218 221 227 233 241 243 232 213 190 192
189 189 188 186 185 186 187 188 188 187 187 188 188 187 187 188 189 190 192 193 194 195 197 199 200 201 204 205 206 207 208 209 209 209 208 207 207 208 209 212 215 217 218 220 221 221 221 220 220 220 221 223 226 228 228 227 226 227 230 231 231 230 230 231 232 231 231 230 228 226 225 226 221 215 217 219 224 232 238 242 244 241 232 217 200
189 187 187 186 187 188 187 189 189 189 190 190 188 187 187 189 191 192 194 195 196 197 197 199 200 202 204 206 208 209 210 210 211 210 209 208 209 209 210 212 214 216 217 219 220 222 221 220 220 221 222 222 224 227 228 226 224 226 230 232 232 232 231 232 232 233 233 232 231 229 227 227 225 220 221 223 228 234 239 243 244 240 236 231 222
189 187 186 187 189 189 188 189 190 190 190 188 186 186 188 189 191 193 195 196 197 197 198 199 200 202 204 206 208 209 211 211 211 211 210 210 211 210 211 213 214 215 216 218 220 221 221 220 220 221 222 222 223 225 227 226 225 226 229 230 232 231 231 232 233 234 234 233 233 232 231 230 229 226 225 227 231 233 236 241 243 239 235 235 230
190 186 186 188 189 189 189 190 192 191 189 186 186 188 189 190 191 193 194 195 196 198 199 200 201 202 204 206 207 209 210 212 212 212 212 212 212 212 213 213 213 214 215 216 218 220 220 220 220 221 223 223 223 223 224 226 225 226 228 230 231 230 231 232 233 233 234 234 234 234 234 234 232 230 229 230 232 234 237 240 242 239 235 233 228
188 187 187 188 187 187 188 190 190 190 189 188 189 189 190 191 193 194 194 194 196 197 199 200 201 203 205 206 207 208 210 211 212 213 214 214 214 214 214 214 213 214 214 215 217 218 220 220 220 222 223 224 224 224 223 223 224 225 226 228 228 229 229 230 231 232 233 233 234 235 236 237 235 233 233 232 233 235 237 241 240 237 235 233 230
186 187 187 186 186 185 186 188 188 189 191 191 191 191 192 194 194 193 194 195 197 198 199 200 201 203 205 206 207 208 209 210 211 213 215 215 215 215 214 214 214 215 215 216 217 218 219 220 221 222 223 225 225 225 224 223 223 224 225 226 226 227 228 228 229 231 232 232 232 234 237 238 236 235 235 235 236 237 238 241 241 237 236 236 234
185 184 185 183 182 182 184 187 187 188 190 192 194 195 195 195 193 193 195 197 197 198 199 200 201 203 204 205 207 208 209 210 211 213 215 216 216 216 215 215 215 215 216 217 218 219 219 220 221 223 224 225 226 225 225 224 224 224 225 225 226 226 227 228 229 230 231 231 231 233 237 238 236 235 237 237 237 238 239 241 242 241 239 239 238
183 179 179 176 175 180 185 188 187 187 190 193 196 197 196 195 194 194 196 197 197 198 199 200 201 202 203 204 206 207 208 210 212 213 215 216 216 216 216 216 216 216 217 217 218 218 219 219 221 223 224 225 226 225 225 225 225 225 225 225 226 227 228 229 230 231 231 231 231 233 236 237 234 234 237 238 238 238 239 241 242 243 242 242 242
179 177 176 176 178 183 186 186 186 187 189 193 196 196 196 196 195 196 196 197 197 198 198 200 201 202 203 204 205 207 208 210 212 213 215 216 216 217 217 217 217 217 217 218 218 218 218 220 222 223 224 225 226 226 225 226 226 225 225 226 227 228 229 230 231 232 233 232 232 234 236 236 233 233 236 238 239 238 238 239 241 242 243 243 243
176 177 178 179 182 184 185 185 187 188 189 191 193 194 195 196 196 196 197 196 196 197 197 199 201 202 204 205 206 208 209 210 211 213 214 215 216 217 217 217 218 217 217 217 218 218 218 220 222 224 224 226 226 226 226 227 226 226 226 226 227 228 229 231 232 233 234 234 234 235 236 235 234 235 237 238 239 239 238 239 240 241 241 241 241
178 179 180 182 184 185 184 186 187 188 188 188 190 192 194 196 196 196 196 196 196 195 196 198 200 202 205 207 208 209 210 211 212 213 214 215 216 217 217 217 218 217 218 218 218 219 219 220 223 224 225 226 226 226 226 227 227 227 227 227 227 228 228 230 232 234 235 235 236 237 237 238 237 237 238 239 239 239 239 239 240 240 239 239 240
179 181 182 184 185 183 183 186 187 186 186 185 187 191 194 195 196 196 196 196 196 195 196 198 199 202 205 207 209 210 211 212 212 213 214 215 216 216 216 217 218 218 218 219 219 220 220 220 222 224 226 227 227 227 227 227 227 227 227 228 229 229 229 229 231 233 235 236 236 237 239 240 241 241 241 242 242 242 240 240 242 241 238 238 238
181 184 188 189 186 184 183 184 184 185 185 184 186 190 192 194 195 195 196 197 196 195 196 198 200 203 206 207 208 209 211 211 212 213 214 215 216 217 216 217 217 218 219 219 220 220 221 221 222 223 225 226 227 228 228 229 229 228 228 228 230 231 231 231 231 233 235 236 237 238 239 241 242 243 244 245 245 245 244 244 245 244 241 238 237
183 185 189 189 186 183 182 182 184 186 186 185 187 190 192 194 195 195 196 196 195 196 197 199 201 204 206 207 208 209 210 211 212 213 214 215 216 216 217 217 218 218 219 219 219 220 221 222 222 223 225 226 227 228 229 230 231 230 229 228 229 232 233 233 233 233 234 236 237 238 240 241 242 244 245 246 247 248 247 247 248 247 245 242 239
184 182 181 182 183 182 182 185 187 187 187 187 187 188 191 194 195 195 195 195 196 197 198 200 203 204 205 206 207 209 210 212 212 213 214 216 216 217 217 218 218 219 219 219 219 220 221 222 222 224 225 226 229 230 230 231 232 232 231 229 230 232 233 234 235 234 236 237 238 240 241 241 242 243 245 246 247 248 249 249 250 249 248 246 245
180 178 177 181 183 183 184 186 186 187 188 190 189 189 192 194 194 194 195 195 196 197 199 201 204 204 205 207 207 209 210 211 212 213 214 215 216 217 217 218 219 219 219 219 220 221 222 222 222 224 226 227 230 232 232 232 233 234 233 231 231 232 234 235 236 237 237 238 240 241 241 242 243 244 245 246 247 248 249 250 251 250 249 248 248
167 171 177 181 179 177 179 184 187 189 190 190 190 191 193 193 192 193 194 195 197 198 199 201 203 204 205 207 207 208 210 211 212 213 213 214 215 217 218 218 219 219 219 220 221 222 223 223 222 224 226 229 231 233 233 233 234 235 234 233 232 233 235 237 238 238 239 240 241 242 242 244 245 245 245 245 246 247 249 250 250 250 249 248 247
104 117 128 146 151 154 165 175 183 186 186 187 190 192 192 191 191 192 194 197 199 199 201 202 203 204 205 205 206 207 208 210 211 211 211 213 215 216 217 218 219 219 220 221 223 223 225 225 224 225 227 230 232 234 234 235 236 236 236 235 233 233 235 238 240 240 240 242 243 243 244 246 247 247 246 245 246 247 247 248 249 249 250 249 248
80 82 81 87 100 114 132 150 167 175 179 184 189 189 188 189 192 193 196 199 201 202 203 203 202 203 204 205 205 206 207 208 209 209 210 212 214 215 216 217 217 219 222 224 225 226 226 227 227 226 227 231 234 234 235 236 237 237 236 235 234 234 236 238 240 241 242 243 244 244 246 247 249 250 249 248 248 248 247 247 248 249 250 250 251
74 75 73 72 73 78 91 110 127 142 161 179 187 187 187 189 192 196 199 201 203 205 205 204 203 203 203 204 204 205 206 207 208 208 209 211 213 215 216 215 216 218 221 223 225 227 228 229 229 228 228 231 234 235 235 236 238 238 236 235 234 234 235 238 240 242 242 244 245 245 247 248 250 251 251 251 250 249 248 248 248 250 251 252 254
66 66 65 64 66 68 72 80 85 83 90 134 176 187 190 190 194 198 201 202 205 208 208 206 205 204 204 204 205 205 206 206 207 208 209 211 213 214 215 215 215 217 220 222 225 227 229 230 231 231 231 232 234 236 236 237 238 237 236 235 234 234 235 238 241 242 243 244 246 246 247 248 250 252 253 253 252 249 248 248 249 251 252 253 256
60 61 60 58 60 61 60 60 58 51 49 67 117 168 185 192 198 200 200 204 208 210 211 209 207 206 205 205 205 205 206 207 207 208 210 211 212 214 215 215 216 217 220 222 224 226 229 230 232 233 233 234 235 236 237 237 237 237 236 236 234 233 235 237 240 243 244 246 247 248 249 249 251 254 254 254 254 251 249 249 250 250 251 254 258
52 51 53 55 56 56 53 49 43 37 37 45 60 100 150 179 196 201 204 210 213 213 213 212 210 208 207 206 206 205 206 207 208 209 210 211 212 213 214 215 216 218 220 222 223 225 228 230 231 233 234 235 235 235 235 236 237 236 235 234 232 231 233 236 239 241 243 245 247 248 250 251 253 255 255 255 255 253 251 251 250 248 250 255 260
49 44 44 47 49 51 50 44 37 34 33 31 33 50 82 114 175 202 214 222 223 221 218 215 212 210 208 207 207 207 206 207 209 210 211 211 212 212 213 214 215 217 219 221 223 225 227 230 232 232 233 234 235 235 235 236 237 237 235 233 231 231 233 235 238 240 242 244 247 249 251 252 254 256 257 257 258 257 256 254 252 251 253 259 262
46 42 39 38 40 46 48 43 37 34 30 24 22 25 19 355 293 268 263 253 242 232 225 219 214 211 209 208 208 208 207 207 208 209 209 209 211 212 212 213 214 214 216 219 222 224 226 230 232 233 234 235 234 235 236 237 237 237 236 234 234 235 236 236 238 240 241 244 247 249 252 254 256 258 260 261 262 263 261 259 258 259 261 262 263
44 41 39 37 37 41 45 45 42 38 33 28 24 22 19 10 351 337 316 279 252 239 230 223 218 213 211 209 208 208 207 206 206 207 207 208 209 210 211 212 212 212 214 217 220 222 225 228 230 232 233 234 233 234 236 238 238 237 237 237 238 240 242 240 239 240 243 246 250 252 255 257 258 260 262 264 265 266 265 265 266 267 267 267 266
49 46 43 41 41 44 48 47 43 38 34 31 27 25 21 18 7 354 341 296 250 234 226 222 219 216 213 210 208 207 206 205 204 204 204 205 207 208 208 209 209 210 211 214 217 218 221 224 227 229 230 231 233 234 236 237 237 237 239 241 242 243 243 241 239 240 242 245 249 252 254 257 259 261 263 265 266 267 269 271 274 276 277 278 277
47 47 45 42 46 54 54 48 40 33 26 22 21 20 13 4 354 347 347 331 259 228 219 216 216 215 213 210 208 206 204 203 202 200 201 203 205 205 205 205 205 206 208 211 214 215 217 220 221 224 227 228 230 231 232 233 235 237 239 241 243 243 241 239 240 243 244 248 252 257 260 262 264 266 268 270 272 274 277 281 283 286 289 290 289
40 44 44 43 47 52 49 40 32 26 20 13 12 12 6 357 348 339 342 342 289 227 215 211 211 211 210 207 204 202 201 200 199 199 201 203 203 203 201 201 202 204 207 209 209 210 213 215 217 219 221 221 220 220 222 225 229 234 237 238 241 243 243 244 247 250 254 259 263 266 268 270 272 275 278 281 284 285 288 291 293 297 301 301 299
22 30 40 43 45 47 43 36 26 18 14 10 6 2 357 352 346 336 330 337 309 231 214 208 206 206 205 202 199 196 195 194 195 198 200 203 203 201 199 199 200 202 205 207 208 208 208 209 212 213 208 201 195 191 190 194 198 201 208 213 218 224 231 235 240 244 250 258 265 271 278 283 286 291 294 300 305 307 307 309 312 315 316 313 309
18 23 36 39 37 40 43 38 25 11 7 7 3 355 349 347 345 335 317 316 311 236 216 210 206 202 199 197 195 191 187 186 188 191 194 197 199 199 200 203 204 205 204 204 204 204 206 208 208 201 186 173 170 169 165 161 160 160 159 160 163 166 172 178 183 197 218 242 266 287 304 314 321 324 323 325 328 328 328 330 330 329 326 321 315
16 19 26 33 38 40 35 27 17 3 356 359 360 352 344 344 344 334 310 278 266 231 209 208 206 200 195 193 190 186 181 175 171 166 164 170 187 197 201 205 209 211 211 212 210 208 209 211 204 192 180 169 159 155 155 151 148 148 149 150 152 152 151 153 151 151 165 203 324 345 352 354 352 350 347 344 341 339 337 336 334 330 326 322 317
8 10 12 19 29 24 10 3 360 352 347 345 343 339 339 342 341 329 299 245 223 199 175 181 184 182 183 181 175 172 171 166 160 153 144 134 141 178 196 203 207 209 210 213 214 211 208 205 194 183 180 177 164 152 149 147 145 144 142 140 139 137 133 131 127 121 107 62 36 24 16 9 3 357 352 347 342 338 333 329 328 327 323 319 315
4 5 1 358 3 7 2 350 339 339 341 341 337 333 330 333 334 325 292 226 202 185 164 157 160 161 163 164 162 159 159 157 154 151 144 128 111 107 127 167 189 196 200 203 205 202 197 196 188 172 160 157 152 145 143 142 140 138 134 129 124 119 115 115 111 93 65 46 36 26 17 10 2 353 345 338 333 330 326 323 323 323 322 319 315